Location: Dampvalley
(47.9094°N, 6.1967°E)
Time: 20:04:34
(UTC+00:00)

Lacrosse 5 - Pass Details

Date: 05 March 2021
Orbit: 718 x 721 km, 57.0° (Epoch: 02 April)

Event Time Altitude Azimuth Distance (km) Brightness Sun altitude
Exits shadow 02:44:45 32° 35° (NE) 1,216 3.4 -33.6°
Drops below altitude 10° 02:48:33 10° 81° (E) 2,204 5.1 -33.0°
Sets 02:51:08 0° 90° (E) 3,123 5.9 -32.7°
